{"data":{"norad_id":63907,"intl_designator":"2025-095T","name":"STARLINK-34106","alt_names":[],"object_type":"PAYLOAD","status":"ACTIVE","operator":null,"country":"US","launch_date":"2025-05-10","launch_site_code":"AFETR","launch_vehicle":null,"mission":null,"orbit_class":"UNKNOWN","rcs_meters":null,"size_class":null,"mass_kg":null,"dimensions":null,"purposes":["comms"],"wikipedia_slug":null,"has_3d_model":false,"image_url":null,"decayed_at":null,"tle_current":{"epoch":"2026-09-20T02:21:20.128032Z","epoch_age_seconds":181810,"freshness":"STALE","line1":"1 63907U 25095T   26263.09814963  .00010749  00000+0  39942-3 0  9995","line2":"2 63907  43.0104 157.9791 0001374 251.0806 108.9897 15.27590942 77511","mean_motion":15.27590942,"eccentricity":0.0001374,"inclination_deg":43.0104,"raan_deg":157.9791,"arg_perigee_deg":251.0806,"mean_anomaly_deg":108.9897,"bstar":0.00039942,"rev_number":7751,"period_min":94.266073489195,"perigee_km":482.07360948305,"apogee_km":483.95905441867,"semimajor_km":6861.1533319509,"source":"CELESTRAK","updated_at":"2026-09-21T09:00:35.146405Z"}}}